Theta_e
306 306 306 306 306 305 305 305 306 305 304 304 304 303 303 303 303 303 303 302 302 301 301 300 300 300 301 301 301 302 302 301 301 300 300 297 296 295 295 295 295 295 295 295 295 295 295 295 294 294 294 293 292 290 290 289 289 289 288 288 288 287 287 287 287 286 286 286 286
306 306 306 307 306 306 305 305 305 305 304 304 304 304 304 304 303 303 303 302 302 302 301 301 301 301 301 301 302 302 301 301 300 299 298 296 295 295 295 295 295 295 295 295 295 295 295 294 294 294 293 293 291 291 290 290 289 289 288 288 288 287 287 287 286 286 286 286 286
306 306 306 306 305 305 305 304 304 304 304 304 304 304 304 303 303 303 302 302 302 301 301 301 301 301 301 301 302 302 301 301 299 298 297 295 295 295 295 295 295 295 295 295 294 294 294 295 295 294 294 292 291 291 290 290 290 289 289 288 288 288 288 288 287 286 286 286 286
305 305 305 305 304 304 304 304 304 304 304 304 304 304 303 303 303 302 302 301 301 301 301 301 301 301 302 302 302 301 301 301 299 297 296 295 295 295 295 295 295 295 294 294 294 294 294 294 295 294 293 292 291 291 290 290 290 289 289 288 288 288 288 288 287 287 287 286 285
305 305 305 305 305 305 305 304 304 304 304 304 304 303 303 302 302 301 301 301 301 301 301 301 302 302 302 302 301 301 300 300 299 297 295 295 295 295 295 295 294 294 294 294 294 294 294 294 293 293 292 292 291 291 290 289 289 289 288 288 288 288 287 287 287 287 286 286 285
305 305 305 305 305 305 305 304 304 304 304 304 303 303 302 302 302 301 301 301 301 301 302 302 303 303 302 301 300 300 299 298 297 295 294 294 294 294 294 294 293 293 293 294 293 293 293 293 293 292 291 291 290 289 288 288 288 288 288 287 287 286 286 286 286 286 286 286 285
305 305 305 305 305 305 304 304 304 304 304 304 303 302 302 301 301 301 301 301 302 302 303 303 303 302 301 300 299 298 298 297 296 295 295 294 294 294 294 293 293 293 293 293 293 293 293 293 293 293 293 292 290 288 287 287 287 287 287 287 286 286 285 284 285 285 285 285 284
305 305 305 305 305 304 304 304 304 304 304 304 303 302 302 301 301 301 301 302 302 302 303 303 301 300 299 298 298 297 297 297 297 296 295 295 294 294 293 293 293 293 293 293 293 293 293 293 292 292 291 291 290 288 286 286 287 287 286 286 285 284 283 283 283 284 285 285 285
305 305 305 305 305 305 305 304 304 304 304 303 303 302 302 302 302 301 301 302 302 302 302 301 300 299 298 298 297 297 297 297 297 296 295 295 294 293 293 292 292 292 292 292 292 292 292 292 291 291 290 290 289 287 286 285 286 286 285 285 284 284 283 282 283 283 284 285 285
304 304 304 304 304 305 305 305 305 304 304 303 303 303 303 303 302 302 302 302 302 301 300 299 299 298 298 297 297 297 297 297 297 297 296 296 295 294 293 292 292 292 292 292 292 292 292 291 290 289 288 287 286 286 285 285 286 286 285 285 285 284 283 283 283 284 284 285 285
304 304 304 304 304 305 305 304 304 304 304 303 303 303 303 303 303 302 302 302 301 300 299 299 298 298 298 298 297 298 298 298 298 297 296 296 295 294 292 292 292 292 291 291 291 291 291 290 289 288 287 286 286 285 285 285 285 285 284 284 284 283 283 283 283 284 284 285 285
304 304 304 304 305 305 305 304 304 304 304 303 303 303 303 302 302 301 301 300 299 299 298 298 298 298 298 298 298 298 298 298 297 297 296 295 294 292 292 291 292 291 291 290 290 290 290 289 289 288 287 286 286 285 285 285 284 284 284 283 283 283 284 284 283 283 284 284 284
304 304 304 304 305 305 304 304 304 304 303 303 303 302 302 301 301 301 300 299 299 298 298 298 298 298 298 298 298 298 298 297 297 296 296 294 292 291 291 291 291 291 290 289 289 289 289 288 288 287 286 286 286 285 285 285 285 285 284 284 284 284 284 284 283 283 283 284 285
304 304 304 304 304 304 304 303 303 303 303 302 302 301 301 301 301 301 300 299 299 298 298 298 298 298 298 298 297 297 297 296 295 295 294 293 291 291 290 290 290 289 289 288 288 288 288 288 287 287 287 286 286 285 285 285 285 285 285 285 285 285 285 284 283 283 284 285 286
304 304 304 304 304 304 303 303 303 302 302 301 301 301 301 301 301 300 300 299 299 298 298 298 298 298 298 298 297 296 296 296 295 294 293 292 290 289 289 289 289 289 288 288 287 287 287 287 287 286 286 286 286 285 285 285 285 285 286 286 286 286 285 284 284 284 284 285 286
303 303 304 304 303 303 303 302 302 302 301 301 301 301 301 300 301 300 300 299 299 298 298 298 298 298 298 298 297 297 296 295 295 293 292 290 289 288 288 289 289 288 288 287 287 286 286 286 286 286 286 286 285 285 285 285 285 285 285 285 285 285 285 285 285 284 285 286 287
303 303 303 303 303 302 302 302 302 301 301 301 301 301 300 300 300 300 300 299 299 298 298 298 298 298 298 298 298 297 296 295 294 292 290 288 288 288 288 288 288 288 287 287 287 286 285 285 285 285 285 285 285 285 285 285 285 285 285 285 285 285 285 287 286 286 285 286 287
303 303 303 302 302 302 302 301 301 301 300 300 300 300 300 300 300 300 300 299 299 299 298 298 298 298 298 298 298 297 296 294 292 290 288 288 287 288 288 288 288 287 287 287 286 286 286 285 284 284 285 285 285 285 285 285 285 285 285 285 285 285 285 287 287 286 286 286 288
302 302 302 302 302 302 301 301 301 301 301 301 300 300 300 300 300 300 299 299 299 299 298 298 298 298 298 297 296 296 295 293 290 289 288 287 287 288 288 288 288 288 287 287 287 287 286 286 285 285 285 286 286 286 286 286 286 286 286 286 286 286 286 286 286 286 286 286 288
302 301 301 301 300 300 300 300 300 300 300 300 300 300 300 300 300 300 299 299 300 299 299 298 298 297 297 296 294 294 293 291 289 288 288 287 287 287 288 288 288 287 287 287 287 286 286 286 286 286 287 287 287 287 287 287 287 287 287 287 287 287 287 287 287 286 286 286 286
301 300 299 298 298 298 298 298 298 299 300 300 300 300 300 300 300 300 300 300 300 299 298 297 297 296 295 293 292 291 291 291 288 287 287 287 288 288 288 288 287 287 287 287 286 286 286 286 287 287 288 288 288 288 288 288 288 288 288 288 288 288 288 288 288 287 286 285 286
300 299 298 297 296 296 296 296 297 298 298 299 299 300 300 300 300 299 298 298 297 297 296 295 294 293 292 290 290 289 289 289 287 287 287 287 287 288 288 288 287 287 287 286 286 286 287 287 288 288 288 289 289 289 289 290 289 288 288 288 288 288 288 288 288 287 287 286 286
299 299 298 297 297 297 297 296 296 297 297 297 297 298 298 297 296 295 295 295 295 294 293 291 290 289 288 288 288 288 288 287 287 287 287 287 287 287 287 287 287 287 287 287 287 287 287 288 288 288 288 288 288 289 290 290 290 289 288 288 287 287 287 287 287 287 287 287 286
298 298 298 298 297 297 296 296 295 295 295 295 295 295 294 293 293 293 293 292 292 291 289 288 287 286 286 286 286 286 287 287 286 286 286 286 286 286 287 286 287 287 287 287 288 289 290 289 289 288 289 289 289 289 289 289 288 288 288 288 288 287 287 287 286 286 286 287 287
294 296 297 297 297 296 296 295 294 293 292 292 292 292 291 290 291 291 290 290 289 287 286 285 285 285 284 285 285 285 286 286 286 286 286 286 286 286 286 286 286 287 288 290 296 298 297 295 292 290 289 289 289 289 288 288 288 287 287 288 288 288 288 287 286 286 286 286 286
291 293 293 294 295 295 294 293 291 290 290 290 290 289 289 289 289 289 288 288 286 285 284 284 284 285 285 284 284 284 285 285 285 285 285 285 285 286 286 286 286 286 288 295 301 302 302 301 298 295 291 289 289 289 288 287 287 287 287 287 288 288 288 287 287 286 286 285 286
290 290 290 290 292 292 292 291 290 289 288 288 288 288 288 288 288 287 287 285 284 284 283 283 284 287 288 284 284 284 284 284 284 284 285 285 285 285 286 286 286 286 290 297 302 303 303 303 302 299 295 290 289 289 288 287 286 286 286 286 286 286 286 287 287 287 287 286 285
288 289 288 288 289 289 288 288 288 287 287 287 287 287 287 287 287 286 285 284 283 283 283 283 285 285 285 283 284 284 283 283 283 284 284 285 286 286 286 286 285 288 293 301 303 303 304 305 304 303 299 294 290 288 288 286 286 286 285 285 284 285 285 285 285 286 286 285 285
287 287 287 288 288 287 287 287 287 286 286 286 287 287 287 286 285 284 284 284 283 283 283 283 285 284 283 283 283 283 283 283 283 283 284 285 285 285 285 286 287 291 297 303 303 303 304 305 305 305 303 299 291 288 286 286 286 285 284 283 283 283 283 283 284 284 285 284 284
287 287 287 287 287 286 286 286 286 286 286 287 288 287 287 285 284 284 284 284 283 283 283 283 284 284 283 283 282 282 283 282 282 283 284 285 286 287 288 290 289 292 297 303 303 303 303 304 304 305 305 302 294 288 285 285 284 284 284 283 282 282 282 282 283 283 283 283 283
287 287 287 287 286 286 286 286 285 286 286 287 287 286 286 285 284 283 283 283 284 285 285 283 283 283 283 282 282 283 283 283 284 285 286 288 290 290 289 289 287 290 296 303 302 302 303 303 303 304 304 303 294 288 284 284 283 283 283 282 282 282 282 283 283 283 283 282 282
287 287 287 287 286 286 286 285 285 285 286 286 286 286 285 284 284 283 283 284 285 285 285 284 285 284 284 283 283 283 284 284 285 286 286 287 288 288 287 287 286 289 295 303 302 302 302 302 303 303 304 303 295 288 283 284 282 282 282 282 282 283 283 283 283 283 283 282 282
286 286 287 287 286 286 285 284 285 285 285 286 286 285 285 284 284 284 284 285 285 285 285 285 286 286 285 285 285 285 285 285 287 289 290 289 288 287 286 287 285 289 297 303 302 302 301 302 302 303 303 302 294 287 282 282 281 281 281 281 281 282 282 282 282 282 283 282 282
286 286 287 287 287 286 285 284 284 285 285 285 285 285 285 284 284 285 285 286 286 285 285 286 286 286 286 286 286 286 287 289 287 287 287 286 285 286 286 285 284 290 299 304 302 302 301 302 302 303 303 301 292 285 281 281 281 281 281 281 281 280 281 282 282 282 282 282 282
287 287 287 286 286 286 285 284 284 284 285 285 285 285 285 285 285 285 286 288 288 287 286 286 286 286 286 286 286 287 288 289 286 285 284 284 284 286 287 286 285 292 300 303 302 302 301 301 302 303 302 298 289 283 281 282 282 281 281 281 281 281 281 281 282 282 282 282 282
288 288 288 287 286 286 286 285 284 285 285 285 285 285 285 286 286 286 288 291 290 288 287 287 287 287 287 287 287 288 289 287 286 285 284 285 285 285 286 286 286 292 299 303 303 302 302 301 302 302 300 293 285 282 281 282 281 281 281 281 282 282 282 282 282 282 282 282 282
289 289 288 288 287 287 286 285 285 286 286 286 286 286 286 286 287 287 289 292 289 288 287 287 287 287 287 287 287 288 288 286 286 286 286 288 287 286 286 286 285 290 297 303 303 302 301 301 302 301 297 289 283 282 281 281 281 281 281 281 281 281 281 281 281 281 282 282 283
290 290 290 289 288 288 287 286 287 287 287 287 287 287 287 287 287 288 290 293 290 288 288 288 288 288 287 287 287 287 286 285 287 287 287 287 287 287 287 287 286 288 293 301 302 302 301 301 302 301 297 287 283 282 282 281 281 281 282 281 280 280 279 280 280 280 281 283 290
291 291 291 290 289 289 288 288 288 288 288 287 287 287 287 288 288 289 291 293 290 289 289 288 289 288 288 289 288 287 286 286 288 289 288 287 287 289 290 288 287 288 292 299 301 302 301 301 301 301 298 290 284 283 283 282 281 281 281 280 280 279 279 279 279 280 281 283 293
292 292 291 291 291 290 289 289 289 289 289 288 288 288 288 288 289 290 292 292 290 289 289 289 289 289 290 293 290 288 287 286 287 289 289 289 290 293 295 291 288 288 292 298 301 302 301 300 301 301 298 291 284 283 283 282 282 281 280 279 279 280 280 280 279 280 281 282 288
293 292 292 292 291 291 290 290 290 290 290 289 289 289 290 290 291 291 291 291 290 289 290 290 290 290 291 295 291 289 288 287 287 288 290 291 292 295 297 292 289 287 289 294 300 301 301 301 301 301 298 290 283 282 283 282 282 282 281 280 279 279 280 280 280 280 281 281 282
Wind_Speed
7 6 5 5 5 4 3 3 4 4 3 4 4 4 4 5 5 5 5 5 5 5 5 6 6 6 7 8 8 7 7 7 7 7 8 7 6 5 5 4 4 4 4 4 5 5 5 5 5 4 4 4 4 3 3 2 3 3 4 4 3 3 3 4 3 3 3 3 2
7 7 6 6 6 5 4 4 4 4 4 3 4 4 4 4 5 5 5 5 5 5 5 5 6 7 7 8 7 7 6 6 7 7 7 6 5 4 4 4 4 4 4 4 4 4 4 5 5 5 4 4 4 4 3 2 3 4 4 4 3 2 3 3 3 3 3 3 2
8 7 7 6 5 5 4 4 4 5 5 4 4 4 4 4 4 5 5 5 5 5 5 5 6 7 7 7 6 5 5 6 6 5 4 4 3 3 3 4 4 4 4 4 3 3 4 5 5 5 5 4 4 4 3 2 3 4 4 3 2 2 3 3 2 2 2 2 2
8 7 7 6 6 6 5 4 5 6 6 5 5 5 4 4 4 5 5 6 6 5 5 6 7 7 7 6 6 5 5 5 5 5 4 4 4 4 4 4 5 5 4 4 4 4 4 4 5 5 5 5 5 5 3 2 3 3 3 2 2 2 2 2 2 2 2 2 2
7 7 6 6 7 6 6 5 6 6 6 5 5 5 5 4 5 5 5 6 6 5 6 7 7 6 6 6 6 6 5 5 5 5 4 4 4 4 4 4 4 4 4 4 4 5 5 5 4 4 5 5 4 4 3 3 3 3 3 2 2 2 2 2 2 2 2 2 2
7 7 7 7 7 7 6 6 7 7 7 6 6 6 6 5 5 6 6 6 7 7 8 8 7 7 7 6 6 5 4 4 4 4 4 4 4 4 4 4 3 3 3 3 4 5 6 6 4 4 4 4 4 3 3 4 4 4 3 2 1 1 2 2 2 2 2 3 2
8 8 8 8 8 8 8 8 8 7 7 7 8 8 7 6 7 7 8 7 7 7 8 7 7 7 7 6 6 5 4 4 4 4 4 4 4 4 4 3 3 3 3 3 4 5 5 5 4 4 4 4 4 3 3 3 4 4 4 2 1 2 2 2 2 2 2 3 3
7 8 8 8 9 9 9 9 8 8 7 7 8 9 9 9 9 9 8 8 7 7 6 5 6 7 7 7 6 5 5 5 5 4 4 4 4 4 4 3 3 3 3 3 4 5 5 4 4 4 4 4 3 3 3 3 4 5 4 3 2 2 2 2 2 2 2 3 3
7 7 8 8 8 9 9 9 9 8 8 8 9 9 10 10 10 9 8 7 7 6 6 5 6 7 7 7 7 6 6 5 5 5 4 4 4 4 4 4 4 3 3 3 4 5 5 4 4 3 3 3 3 3 2 3 5 5 4 3 2 2 2 2 2 2 2 2 2
7 7 8 8 8 9 9 9 9 9 9 9 10 10 10 10 9 8 7 6 6 6 6 6 6 7 7 7 7 6 6 5 5 4 4 4 3 3 3 3 4 3 3 3 4 5 5 4 4 4 3 3 3 3 3 4 5 5 4 2 2 2 2 2 2 2 2 2 2
7 7 7 8 8 9 9 9 8 8 9 9 10 10 10 10 8 7 6 6 7 7 7 6 7 7 7 6 6 6 5 5 4 4 3 2 2 2 3 3 3 3 3 3 3 4 5 4 4 4 4 3 3 3 4 5 6 5 4 2 2 2 2 1 1 1 1 1 1
7 7 7 8 8 9 9 8 8 8 8 9 9 9 9 8 8 7 7 7 8 7 7 7 7 7 6 5 6 5 5 5 4 4 3 2 2 2 2 2 3 3 3 3 3 3 4 4 5 4 4 3 3 3 4 5 5 5 4 2 2 2 1 0 0 0 1 1 1
7 7 7 8 8 8 8 8 7 7 8 9 8 8 8 7 8 8 8 8 8 7 7 6 6 6 6 5 5 5 5 5 4 4 3 2 2 2 2 2 2 3 3 3 3 3 4 5 5 5 5 3 3 3 3 4 5 4 3 2 2 1 1 1 1 1 1 2 1
7 7 7 8 8 8 8 7 6 7 7 8 8 7 7 7 7 8 8 8 8 8 7 6 5 5 5 5 5 5 5 5 4 4 3 3 2 2 2 3 3 3 3 2 3 3 4 5 5 5 5 4 3 3 3 3 4 4 4 3 3 2 2 1 1 1 1 2 1
7 7 7 8 8 7 7 7 6 6 7 8 7 7 7 7 7 7 7 8 8 7 7 6 5 5 5 5 5 5 5 4 4 4 3 3 2 3 3 4 3 3 3 3 3 3 4 4 5 5 5 5 4 3 2 2 3 3 3 3 3 3 2 2 2 2 2 2 1
6 7 7 7 7 6 6 6 5 6 7 7 7 7 7 6 7 7 8 8 7 7 6 6 6 5 5 5 5 4 4 4 4 4 4 3 3 3 4 4 4 3 3 3 3 3 3 3 3 4 4 5 4 3 3 2 2 2 2 2 2 2 2 2 2 2 2 2 2
6 6 6 6 6 6 6 5 5 5 6 7 7 7 7 6 6 7 8 8 7 7 7 7 6 6 5 5 5 4 4 4 4 4 4 4 4 4 4 5 4 4 4 4 4 3 3 3 3 3 3 4 4 3 3 2 2 2 1 1 1 1 2 2 2 2 2 2 2
6 6 6 6 6 6 6 6 6 6 6 7 7 7 6 7 7 7 7 8 8 8 9 8 7 6 6 6 5 4 4 4 4 4 3 3 4 4 4 5 4 4 4 4 4 4 3 3 3 3 3 4 3 3 3 2 2 2 1 1 1 1 1 2 2 3 3 3 3
5 5 5 6 6 6 6 6 6 6 6 7 7 7 7 7 7 7 7 7 8 8 9 8 7 6 6 6 5 5 5 4 4 3 3 2 3 4 4 4 4 3 3 3 4 4 4 4 4 4 4 4 3 3 2 2 2 1 1 1 1 1 1 1 2 3 3 3 3
5 5 5 5 5 6 6 6 6 6 6 6 7 7 7 8 8 8 8 8 7 7 7 7 7 6 5 5 4 4 4 3 3 2 2 2 2 3 4 4 4 3 3 3 3 4 4 4 4 4 4 4 4 3 2 2 2 1 1 1 0 0 0 1 1 2 2 2 3
5 5 5 5 5 5 6 6 6 6 6 6 7 7 7 7 7 8 8 8 7 6 6 6 6 6 5 4 4 3 3 2 1 1 2 2 2 3 3 4 4 4 3 3 3 3 4 4 4 4 4 4 4 3 3 2 2 2 1 1 1 1 1 0 0 1 1 2 2
5 5 5 5 5 5 5 5 6 6 6 6 6 6 6 6 6 6 6 6 6 5 5 4 5 5 4 4 4 3 2 1 1 1 1 2 2 2 3 4 4 4 4 3 3 4 4 4 4 4 4 4 4 3 3 3 2 2 1 1 1 1 1 1 0 0 1 1 1
5 5 5 5 5 5 6 6 6 6 6 6 5 6 6 5 5 5 5 5 5 5 4 3 3 3 3 3 3 3 3 2 2 2 2 2 2 3 3 3 4 4 4 4 4 4 4 4 4 3 4 4 4 3 3 3 3 2 2 1 1 1 1 1 1 1 0 0 1
5 5 5 5 5 5 6 5 6 6 5 5 5 5 5 5 5 5 6 6 5 5 4 3 3 3 3 3 3 3 4 3 3 2 2 2 3 3 3 3 3 4 4 4 4 5 5 4 4 3 3 3 3 3 3 3 3 2 2 1 1 1 1 2 1 1 1 0 0
5 5 5 5 5 5 5 5 5 5 5 5 5 5 5 5 5 6 6 6 5 4 4 3 3 3 3 3 3 3 3 4 4 4 3 3 3 3 3 2 2 2 2 4 7 8 8 7 5 4 3 3 3 3 3 2 2 2 2 2 1 1 1 2 2 2 1 1 1
5 5 5 5 6 6 5 5 5 5 4 4 4 4 4 4 5 5 5 5 4 4 3 3 3 3 3 3 3 3 3 3 4 4 4 4 3 2 2 1 1 1 2 4 8 9 9 9 8 6 5 4 3 3 3 2 2 2 2 2 2 1 1 1 2 2 2 2 2
5 5 5 5 5 6 5 5 5 4 4 4 4 4 4 4 5 5 5 5 4 3 3 3 3 3 3 3 3 3 3 2 3 3 4 4 4 3 2 1 1 1 2 6 7 8 9 9 10 8 7 4 4 4 3 3 2 2 2 2 2 2 2 1 0 2 2 3 2
5 5 5 5 5 5 5 4 4 4 4 4 4 4 4 5 5 5 4 4 3 3 2 2 2 2 2 2 3 3 3 2 2 2 3 3 4 3 2 1 1 2 4 6 7 8 8 9 10 10 9 6 5 4 4 4 3 2 2 2 2 2 2 2 1 1 2 2 3
5 5 5 6 5 5 4 4 4 4 4 4 4 4 5 5 5 4 4 4 3 3 2 1 1 2 2 2 2 3 3 2 2 2 3 3 3 2 2 1 1 2 4 6 7 7 7 8 9 10 10 9 5 4 4 4 3 3 2 2 2 2 2 2 2 1 1 2 2
4 5 5 6 5 5 4 4 4 4 4 4 5 5 6 5 4 4 4 4 3 3 2 2 2 2 2 2 2 2 2 2 2 2 3 3 3 2 2 1 1 2 4 5 6 6 6 5 6 7 8 10 6 4 4 4 3 3 2 2 2 2 2 2 1 0 1 1 2
4 5 5 5 5 5 4 4 3 3 4 4 5 5 5 5 4 4 4 3 3 2 2 2 3 3 2 2 2 2 2 2 2 2 3 4 4 3 2 1 1 2 4 5 5 4 3 3 3 4 7 11 7 5 4 3 3 3 2 2 2 2 1 1 0 0 1 1 1
4 4 5 5 5 4 4 3 3 4 4 5 5 5 5 4 4 3 3 2 3 3 3 3 3 3 2 2 2 2 2 2 2 3 3 3 3 3 2 2 2 3 4 5 4 3 2 2 2 3 6 10 7 5 4 3 3 3 2 2 2 1 1 0 0 1 1 1 1
4 4 5 5 5 4 3 3 4 4 5 5 5 5 5 4 3 2 2 2 3 3 3 3 3 3 3 2 2 2 2 3 3 3 3 3 2 2 2 2 2 3 5 5 4 3 2 2 3 3 5 10 8 6 4 4 3 2 2 2 1 1 1 0 0 1 2 2 2
5 5 5 5 5 4 3 3 4 4 5 5 5 5 4 4 3 3 2 2 2 2 2 3 3 3 3 3 3 3 3 3 3 2 2 2 2 2 2 2 2 4 5 6 4 3 3 3 4 3 5 10 7 6 4 4 3 2 2 1 1 0 0 1 1 2 2 3 2
7 6 6 5 5 4 4 4 4 5 5 5 5 4 4 4 4 3 3 3 2 2 2 2 2 2 2 2 2 3 3 3 3 2 2 2 2 2 2 2 3 4 6 6 5 4 3 3 4 3 4 9 6 5 4 4 3 3 2 2 1 1 1 1 2 2 3 3 3
8 8 7 6 5 5 5 5 5 5 5 6 5 5 4 4 3 3 3 3 3 3 2 2 2 2 2 2 1 2 3 4 3 3 3 3 3 3 2 3 3 4 6 6 5 4 4 4 4 2 5 8 5 4 3 3 3 3 2 2 1 1 2 2 2 2 3 3 3
8 9 8 8 7 6 6 6 6 6 6 6 5 5 4 4 3 3 3 3 3 3 3 2 2 2 3 3 2 2 2 3 3 3 3 4 4 4 3 3 3 4 5 6 6 5 4 4 5 1 5 8 5 4 3 3 3 3 2 1 1 2 2 2 2 2 3 3 3
9 9 9 8 8 7 7 6 6 6 6 6 5 4 4 4 3 3 3 4 3 3 3 3 3 3 3 3 3 2 2 2 3 4 4 5 5 5 5 4 4 4 5 6 6 5 4 4 6 3 4 7 5 4 4 3 3 2 1 1 2 2 2 2 2 2 3 3 4
9 9 9 9 8 8 7 7 7 7 7 5 4 4 4 3 3 3 3 4 3 3 4 4 3 3 4 4 3 2 2 1 2 3 4 5 6 6 6 5 5 4 4 5 6 5 4 4 6 4 2 7 5 4 4 3 3 2 1 0 1 2 3 2 2 2 3 4 6
9 9 9 9 8 8 8 8 8 7 6 5 5 5 4 4 3 3 3 3 3 3 4 4 4 4 4 5 4 3 2 2 2 3 4 5 6 7 7 6 5 4 4 5 6 5 5 4 6 4 1 7 5 4 4 4 3 2 1 1 1 2 2 2 2 2 2 3 5
9 9 9 9 8 8 8 9 8 8 7 6 6 6 5 4 4 3 3 2 2 3 3 3 4 4 4 5 4 4 3 3 3 3 4 5 5 6 6 5 4 4 4 4 5 5 5 4 6 5 1 6 4 4 4 4 3 2 1 1 1 1 1 2 2 2 2 3 3
Wind_Direction
120 120 120 123 120 115 112 111 114 114 114 118 122 125 127 126 127 128 130 131 134 136 138 140 139 140 140 140 139 139 140 143 147 150 151 151 150 145 141 139 140 140 142 144 141 138 133 129 121 113 105 102 96 89 81 79 88 89 88 87 90 95 99 100 100 95 88 80 75
123 123 124 125 121 117 112 112 113 113 113 114 116 118 120 121 123 124 126 129 130 132 134 135 138 141 143 145 143 143 145 147 151 153 154 153 153 151 151 155 154 154 154 157 156 152 145 137 125 116 106 100 96 92 88 88 97 97 94 90 93 96 99 100 102 100 96 90 77
126 127 127 126 124 123 120 118 118 118 116 113 111 111 111 111 115 119 121 124 125 127 130 135 141 143 144 145 143 142 143 145 149 152 154 156 161 166 171 173 166 161 158 162 166 160 147 135 122 115 110 106 105 105 106 105 105 102 101 102 102 99 99 102 102 98 91 85 74
128 130 130 128 129 128 127 126 124 122 120 116 112 109 107 108 112 115 117 119 122 127 134 140 143 144 143 140 137 134 135 141 148 154 160 163 171 177 178 175 165 159 157 160 161 151 136 122 114 111 112 114 116 118 121 123 109 101 99 105 102 102 103 104 98 91 85 82 72
130 132 133 132 131 129 127 126 126 124 122 119 117 115 112 111 114 116 119 122 129 135 140 142 142 141 138 133 129 128 130 141 153 159 165 169 172 172 168 159 154 153 156 160 153 138 123 111 108 109 112 116 116 119 122 120 109 101 93 83 82 93 101 100 88 81 79 80 69
133 133 133 132 131 129 127 127 127 127 125 124 123 123 121 121 123 125 128 131 135 137 140 142 140 137 132 126 124 125 132 144 156 161 163 164 162 155 148 140 140 143 147 149 133 120 112 108 107 107 108 107 102 99 102 109 109 106 99 84 68 68 80 90 84 80 80 81 73
136 136 136 135 134 133 132 132 131 129 128 127 128 128 129 129 130 131 132 134 136 139 143 144 140 136 131 126 127 130 138 148 155 159 160 158 150 140 130 123 121 121 120 118 108 103 102 103 105 106 105 104 99 91 89 102 110 111 108 101 68 54 63 75 73 79 86 92 85
135 136 136 136 135 135 135 136 135 133 132 132 132 132 132 132 132 132 133 133 138 141 143 140 136 133 131 131 134 139 145 150 154 157 158 153 141 129 118 109 102 99 99 101 98 95 93 93 98 102 105 105 104 99 97 105 110 111 110 107 69 47 47 57 56 72 91 102 102
134 134 134 134 135 136 137 137 136 135 134 133 133 133 133 134 134 134 135 136 138 136 132 128 129 129 129 132 138 144 149 151 150 150 150 147 135 121 106 96 92 87 84 87 92 92 90 87 86 90 96 102 107 108 107 106 107 106 103 96 71 45 36 41 50 64 84 104 115
134 134 134 134 135 136 136 135 134 132 132 131 132 134 135 137 136 136 136 134 129 124 123 126 128 129 130 134 140 144 146 144 139 136 134 137 126 108 92 83 87 87 86 85 92 94 93 90 85 81 80 89 102 104 101 97 100 98 92 78 68 53 38 29 45 61 82 105 127
132 133 135 135 136 136 135 135 134 133 132 132 133 135 136 138 136 134 131 125 122 123 126 130 131 132 135 138 142 142 141 135 129 126 125 125 103 83 76 78 92 100 104 103 101 100 99 99 96 89 80 74 88 93 92 88 92 91 87 71 70 67 56 27 41 66 98 122 130
128 130 133 134 136 136 136 136 136 135 135 135 135 135 135 135 134 131 127 123 125 127 129 132 135 137 139 141 142 140 136 132 130 132 131 118 81 70 73 85 108 119 123 119 110 107 107 108 107 101 92 76 76 83 88 89 92 93 92 85 85 91 99 94 65 96 114 118 124
127 129 132 134 135 136 136 136 136 136 136 136 135 134 132 131 131 130 129 129 130 131 132 135 137 139 141 142 141 140 139 139 141 142 136 114 91 87 98 121 139 139 132 119 108 108 110 112 112 109 103 92 82 83 91 98 103 108 114 119 120 131 149 176 174 140 112 109 123
128 131 133 136 136 136 135 135 135 135 135 134 132 130 129 129 131 132 132 133 134 135 136 138 139 141 142 143 142 143 143 145 144 139 130 116 117 133 153 166 162 147 129 111 101 105 110 114 113 112 110 106 101 98 101 109 119 129 137 145 150 157 168 177 169 141 122 118 131
130 132 135 136 137 136 135 135 135 134 134 133 131 130 129 129 132 133 134 134 136 137 138 140 141 141 141 141 140 140 140 138 135 131 129 134 153 169 173 169 158 142 123 107 96 99 106 113 115 115 116 119 122 123 124 124 134 142 149 154 158 161 165 168 161 149 142 139 142
129 132 134 135 135 135 135 136 135 135 135 134 133 132 130 131 132 134 135 136 136 137 140 142 142 141 141 140 137 134 134 134 136 142 151 165 178 179 172 162 153 141 127 113 102 93 93 101 109 116 122 129 135 138 139 135 136 140 147 150 151 153 157 159 160 161 162 157 158
126 129 131 132 132 132 132 132 132 133 134 134 134 133 132 132 134 137 139 140 141 142 144 147 146 145 144 145 143 142 145 153 162 169 174 178 178 174 167 160 155 147 135 125 118 109 98 89 93 104 115 125 132 135 135 130 127 127 130 134 140 146 154 161 168 171 174 173 186
126 127 128 129 129 129 128 128 128 129 131 132 133 132 133 134 136 139 143 145 146 148 149 151 150 150 151 153 155 161 168 176 184 186 184 179 175 170 165 160 156 149 140 133 131 127 121 111 103 101 104 109 116 120 123 124 125 128 131 134 144 160 173 178 181 181 182 185 199
125 126 126 126 126 125 125 124 125 127 129 131 131 132 134 137 139 142 144 149 152 152 152 152 152 153 155 159 164 174 182 188 191 191 186 175 172 165 160 155 152 146 139 132 130 128 125 121 117 112 109 107 107 108 108 110 110 111 111 117 137 178 199 201 195 192 193 197 205
121 121 121 120 119 120 120 121 123 126 128 130 132 135 138 142 144 146 149 153 155 154 152 152 153 155 158 162 169 179 188 192 191 189 181 169 166 160 154 149 146 139 129 121 119 119 119 119 119 118 117 115 113 109 103 96 87 78 69 60 48 353 271 243 219 207 205 205 207
116 115 114 113 114 117 119 121 123 126 129 133 137 140 143 146 148 150 151 151 149 148 148 149 152 155 160 164 173 181 186 181 172 171 168 161 159 153 148 142 139 132 122 113 114 116 117 118 120 121 120 120 118 117 113 105 94 79 61 46 30 6 342 325 261 213 203 199 195
117 114 113 113 115 118 121 122 125 128 132 136 140 142 143 144 144 143 140 137 136 137 140 144 150 155 160 165 170 170 160 131 109 112 129 140 140 135 131 130 132 130 128 124 122 119 118 117 119 121 123 124 124 124 123 118 108 97 79 57 32 13 5 15 30 102 161 173 169
120 118 117 117 118 121 123 124 127 130 133 135 137 137 136 134 130 125 123 124 128 131 135 139 144 150 154 158 157 151 140 121 103 93 92 101 110 113 117 123 133 138 141 142 135 128 124 121 123 126 129 129 131 131 129 124 118 111 101 82 49 21 11 14 29 46 76 127 155
122 123 124 123 124 125 126 127 129 132 134 135 135 132 129 126 123 121 121 123 126 129 131 132 132 133 134 136 139 142 143 139 127 111 94 85 95 104 111 120 134 145 151 154 152 149 144 138 139 140 141 137 133 130 127 123 122 119 116 105 71 31 11 1 6 17 26 34 194
122 125 128 130 131 132 132 133 134 136 137 137 133 130 128 127 128 127 127 126 126 128 128 128 123 120 118 120 126 133 139 140 136 127 112 94 89 93 100 109 124 141 158 167 168 164 160 156 155 153 149 140 129 121 116 115 122 126 127 122 104 65 23 359 351 344 334 306 266
123 126 129 134 136 138 139 139 139 139 138 136 133 132 132 131 129 128 127 128 127 126 125 126 125 125 125 120 119 118 119 124 128 128 124 117 106 98 94 99 112 145 183 190 183 178 172 166 161 156 149 140 130 123 119 119 127 133 135 135 127 114 84 15 339 328 319 306 299
128 130 133 134 137 140 142 142 139 137 137 137 136 135 132 127 125 125 126 127 125 122 118 119 124 128 128 121 119 116 112 108 113 120 125 128 127 126 128 134 160 201 210 208 205 198 190 180 171 163 156 145 142 140 140 145 147 143 140 141 141 140 142 153 271 303 308 308 312
137 137 136 134 137 139 139 136 138 141 143 143 140 134 126 119 120 123 125 125 122 118 115 110 114 114 111 108 113 115 116 111 110 113 120 125 131 138 148 169 204 224 223 221 223 221 213 197 184 175 169 159 151 146 145 146 147 146 143 147 153 160 168 178 199 241 286 307 317
143 140 139 140 142 142 141 142 148 150 149 144 136 127 121 119 122 124 127 127 128 131 133 125 109 94 90 100 105 106 106 108 111 113 116 119 127 139 155 175 205 230 232 230 234 236 231 215 196 184 174 162 150 138 137 139 141 142 145 157 169 178 182 188 197 217 270 310 324
144 143 144 147 147 149 151 155 154 150 143 134 128 125 124 125 129 133 136 139 145 149 146 127 109 102 102 109 107 105 106 110 114 120 125 131 140 149 165 177 212 246 252 248 247 248 245 231 209 182 161 148 138 130 127 132 135 141 152 169 179 182 184 187 191 226 304 330 332
147 148 149 151 154 157 159 157 147 138 132 129 129 131 134 140 145 149 150 151 147 134 114 98 102 105 105 98 103 111 119 122 126 133 140 145 151 159 172 197 235 259 263 261 259 258 254 236 206 156 137 134 132 130 129 129 135 144 156 168 174 176 175 168 162 319 318 319 320
152 153 154 157 163 164 160 147 136 132 131 133 137 142 148 155 156 154 148 137 124 113 103 97 106 109 104 91 99 112 125 135 148 156 158 153 156 163 179 213 245 259 262 262 263 263 257 230 202 155 135 128 127 128 128 127 133 141 149 156 159 159 155 140 315 293 282 269 260
158 160 162 167 170 166 155 140 135 135 137 140 146 153 159 163 154 140 128 119 116 118 123 130 137 141 142 142 141 145 152 160 165 165 162 152 150 156 176 218 247 258 261 260 261 262 255 235 222 185 145 126 124 124 125 123 127 130 132 131 140 147 155 176 256 269 264 252 235
166 167 171 175 173 166 154 142 139 139 142 148 156 162 164 162 155 148 142 135 128 126 132 143 149 153 155 153 155 161 168 172 167 161 154 141 137 150 181 231 254 260 259 254 256 259 258 248 239 210 156 125 123 123 124 122 118 111 101 88 78 76 231 239 253 258 255 248 232
171 172 176 179 174 165 156 148 145 147 151 159 166 169 169 166 164 163 159 151 135 122 116 124 128 131 132 134 145 157 165 168 168 163 153 139 138 158 197 237 259 260 254 246 252 261 268 266 254 219 150 121 121 122 123 117 107 95 80 59 27 349 309 276 266 260 255 246 230
175 175 178 178 173 166 159 155 153 156 162 169 173 175 175 175 172 166 158 149 132 123 119 119 115 120 126 137 149 165 170 169 170 170 165 154 154 172 202 233 255 258 253 245 252 264 277 282 270 203 128 117 119 117 112 104 96 86 73 51 3 322 301 287 276 270 262 252 231
180 179 177 176 173 169 164 160 160 166 174 180 180 179 178 177 173 165 155 148 136 135 139 136 140 153 166 174 177 179 176 168 166 169 173 174 174 183 200 225 243 254 254 249 254 265 280 290 282 222 128 120 123 117 104 94 88 81 69 37 321 298 288 280 277 275 272 265 250
184 181 179 177 175 171 168 164 169 176 183 186 185 182 178 174 170 166 163 158 150 151 155 156 165 177 183 183 180 175 168 164 167 172 178 185 186 189 195 212 229 244 250 250 252 261 277 292 287 263 143 131 133 126 114 101 94 88 77 357 304 294 288 279 277 277 278 279 284
186 184 182 180 177 174 171 171 177 182 186 186 185 182 179 177 175 174 171 166 157 158 164 171 181 186 186 180 173 167 167 181 182 183 186 192 196 195 195 200 217 231 241 242 245 255 270 287 287 276 161 137 139 133 124 114 111 108 107 290 299 299 296 289 283 282 284 287 308
186 186 185 184 181 177 176 177 182 184 184 182 182 182 182 183 180 177 172 163 155 160 168 178 185 186 183 179 175 175 182 201 206 201 199 200 207 205 202 197 207 220 232 236 239 249 263 280 284 281 186 134 139 134 126 121 121 125 146 245 280 295 300 300 295 289 286 289 311
185 185 186 186 184 182 181 183 185 184 182 180 182 183 182 180 174 168 162 157 159 165 174 181 184 184 183 183 179 180 190 209 217 215 210 206 215 215 208 196 201 211 226 237 240 248 259 273 281 281 231 133 136 132 126 123 129 145 188 231 233 257 286 301 305 301 294 290 299